Flag for Trinidad and Tobago Weather past 2 weeks in Port of Spain, Trinidad and Tobago

Now
90 °F

Scattered clouds.


Feels Like: 98 °F
Forecast: 80 / 87 °F
Wind: 18 mph from East

Location: Piarco International Airport - Trinidad

Current Time: Jul 26, 2014 at 4:00:41 PM

Latest Report: Jul 26, 2014 at 3:00 PM


Visibility: N/A

Pressure: 29.89 "Hg

Humidity: 59%

Dew point: 73 °F

Location of Port of SpainLocation

Historic Weather in Port of Spain — Graph

°F

Port of Spain temperature yesterday

Maximum temperature yesterday: 90 °F (at 1:00 PM)
Minimum temperature yesterday: 77 °F (at 7:00 AM)
Average temperature yesterday: 81 °F

Past Weeks' High & Low Weather Summary

 TemperatureHumidityPressure
High91 °F (Jul 13, 1:00 PM)100% (Jul 16, 3:00 AM)30.07 "Hg (Jul 16, 3:00 AM)
Low73 °F (Jul 18, 2:00 PM)52% (Jul 13, 1:00 PM)29.86 "Hg (Jul 25, 3:00 PM)
Average81 °F80%29.97 "Hg
* Reported Jul 11 3:00 PM — Jul 26 3:00 PM, Port of Spain, Weather by CustomWeather, © 2014

Note: Actual official high and low records may vary slightly from our data, if they occured in-between our weather recording intervals... More about our weather records

Advertising

Port of Spain weather history for previous 24 hours

 ConditionsComfort  
Time TempWeatherWind HumidityBarometerVisibility
3:00 PM
Jul 26
90 °FScattered clouds.18 mph59%29.89 "HgN/A
2:00 PM90 °FScattered clouds.12 mph59%29.89 "HgN/A
1:00 PM90 °FPartly sunny.15 mph59%29.92 "HgN/A
12:00 PM90 °FScattered clouds.14 mph63%29.95 "HgN/A
11:00 AM88 °FScattered clouds.14 mph66%29.95 "HgN/A
10:00 AM86 °FWarm.7 mph75%29.95 "Hg3 mi
9:00 AM81 °FSprinkles. Scattered clouds.6 mph89%29.98 "HgN/A
8:00 AM81 °FScattered showers. Scattered clouds.12 mph84%29.95 "Hg4 mi
7:00 AM79 °FScattered clouds.No wind89%29.92 "HgN/A
6:00 AM79 °FScattered clouds.No wind84%29.92 "HgN/A
5:00 AM79 °FPassing clouds.No wind89%29.89 "HgN/A
4:00 AM79 °FPassing clouds.No wind89%29.86 "HgN/A
3:00 AM79 °FPassing clouds.6 mph89%29.86 "HgN/A
2:00 AM79 °FPassing clouds.6 mph89%29.89 "HgN/A
1:00 AM79 °FScattered showers. Passing clouds.9 mph89%29.92 "HgN/A
12:00 AM79 °FPassing clouds.7 mph89%29.92 "HgN/A
11:00 PM
Jul 25
77 °FPassing clouds.8 mph94%29.95 "HgN/A
10:00 PM77 °FPassing clouds.6 mph89%29.95 "HgN/A
9:00 PM77 °FPassing clouds.6 mph89%29.92 "HgN/A
8:00 PM77 °FScattered showers. Passing clouds.13 mph94%29.89 "HgN/A
7:00 PM79 °FSprinkles. Passing clouds.10 mph89%29.89 "HgN/A
6:00 PM81 °FSprinkles. Scattered clouds.9 mph84%29.86 "HgN/A
5:00 PM79 °FScattered clouds.8 mph89%29.86 "HgN/A
4:04 PM79 °FThunderstorms. Scattered clouds.13 mph89%29.89 "Hg3 mi
Weather by CustomWeather, © 2014

See weather overviewHow to use our weather pages